Location: Kawakawa
(35.3830°S, 174.0670°E)
Time: 01:44:58
(UTC+13:00)

Altair - Pass Details

Date: 06 December 2019
Orbit: 1502 x 1682 km, 47.2° (Epoch: 18 January)

Event Time Altitude Azimuth Distance (km) Brightness Sun altitude
Rises 17:06:40 0° 237° (WSW) 4,941 10.9 38.3°
Reaches altitude 10° 17:09:53 10° 235° (SW) 3,960 10.6 37.7°
Maximum altitude 17:20:08 71° 150° (SSE) 1,765 8.3 35.6°
Drops below altitude 10° 17:30:12 10° 66° (ENE) 3,904 9.2 33.5°
Sets 17:33:20 0° 64° (ENE) 4,869 9.6 32.9°
